L'image de la webcam se met à jour toutes les 30s.
La jauge météo se met à jour toutes les 10s d'après les données envoyées par la station météo du club.
Les graphiques se mettent à jour toutes les 5min et ne s'affichent que si la station est en ligne
METAR de LFRD (Source NOAA)
LFRD 180430Z AUTO 21005KT CAVOK 03/02 Q1028 TEMPO 3000 BR

TAF de LFRD (Source NOAA)
TAF LFRD 171700Z 1718/1818 VRB05KT 9999 SCT030 PROB30 TEMPO 1722/1802 3000 BR BECMG 1807/1809 21010KT PROB40 TEMPO 1816/1818 20015G25KT 5000 RA BKN014
Ayez la webcam en fond d'écran de votre téléphone ou de votre tablette Android avec l'appli du club.